#timestamp,LO_Frequency,Hit,StdDev 
1664784015.8,286047002.4,N
1664784035.6,286047001.4,N
1664784055.4,286047002.1,N
1664784075.3,286047002.4,N
1664784095.1,286046999.9,N
1664784115.8,286047002.0,N
1664784135.7,286047002.5,N
1664784155.5,286047002.4,N
1664784175.4,286047000.8,N
1664784195.2,286047002.7,N
1664784215.0,286047001.9,N
1664784215.9,286047001.9,N
1664784235.8,286047003.7,N
1664784255.6,286047003.1,N
1664784275.4,286047003.7,N
1664784295.3,286047006.0,Y
1664784315.1,286047001.3,P
1664784335.9,286047001.3,P
1664784355.7,286047004.0,P
1664784375.5,286047003.9,Y
1664784395.4,286047002.5,P
1664784415.2,286047001.3,P
1664784435.1,286047006.0,P
1664784436.0,286047006.0,Y
1664784455.8,286046999.9,P
1664784475.6,286046997.3,N
1664784495.5,286046996.5,N
1664784515.3,286046997.7,N
1664784535.1,286046999.2,N
1664784555.9,286046999.1,N
1664784575.7,286046999.4,N
1664784595.6,286046998.4,N
1664784615.4,286046999.0,N
1664784635.2,286046999.5,N
1664784655.1,286046998.0,N
1664784656.0,286046998.0,N
1664784675.8,286046993.7,Y
1664784695.7,286046995.6,P
1664784715.5,286046997.4,N
1664784735.3,286046998.8,N
1664784755.2,286046998.6,N
1664784775.0,286047001.2,N
1664784775.9,286047001.2,N
1664784795.8,286047002.8,N
1664784815.6,286046999.4,N
1664784835.4,286046998.4,N
1664784855.3,286046999.8,N
1664784875.1,286047000.7,N
1664784895.8,286047002.7,N
1664784915.7,286047000.2,N
1664784935.5,286047001.0,N
1664784955.4,286046999.8,N
1664784975.2,286047001.9,N
1664784995.0,286047001.5,N
1664784995.9,286047001.5,N
1664785015.8,286047001.9,N
1664785035.6,286047001.4,N
1664785055.5,286047004.4,N
1664785075.3,286047001.9,N
1664785095.1,286047002.6,N
1664785115.9,286046999.3,N
1664785135.7,286047000.6,N
1664785155.5,286047002.6,N
1664785175.4,286047004.4,N
1664785195.2,286047001.3,N
1664785215.1,286047001.8,N
1664785216.0,286047001.8,N
1664785235.8,286047000.7,N
1664785255.6,286046998.5,N
1664785275.5,286046998.2,N
1664785295.3,286046999.4,N
1664785315.1,286046998.1,N
1664785335.9,286047002.7,N
1664785355.7,286047002.8,N
1664785375.6,286047000.1,N
1664785395.4,286047002.5,N
1664785415.2,286047000.2,N
1664785435.1,286047000.2,N
1664785436.0,286047000.2,N
1664785455.8,286047002.3,N
1664785475.7,286047002.5,N
1664785495.5,286047001.7,N
1664785515.3,286047004.4,N
1664785535.2,286047001.5,N
1664785555.0,286047002.6,N
1664785555.9,286047002.6,N
1664785575.7,286047001.7,N
1664785595.6,286047004.1,N
1664785615.4,286047001.8,N
1664785635.3,286046999.7,N
1664785655.1,286047000.1,N
1664785656.0,286047000.1,N
1664785675.8,286046999.9,N
1664785695.7,286047002.6,N
1664785715.5,286046999.7,N
1664785735.3,286047002.3,N
1664785755.2,286046999.9,N
1664785775.0,286047000.3,N
1664785775.9,286047000.3,N
1664785795.8,286047001.0,N
1664785815.6,286047000.4,N
1664785835.4,286047000.1,N
1664785855.3,286047002.2,N
1664785875.1,286047002.7,N
1664785895.9,286047000.6,N
1664785915.7,286046999.7,N
1664785935.5,286046999.7,N
1664785955.4,286046998.2,N
1664785975.2,286047000.8,N
1664785995.0,286047000.9,N
1664785995.9,286047000.9,N
1664786015.8,286047002.8,N
1664786035.6,286047004.1,N
1664786055.7,286047004.0,N
1664786075.5,286047006.0,Y
1664786095.4,286047003.1,P
1664786115.2,286047003.2,P
1664786135.0,286047002.2,N
1664786135.9,286047002.2,N
1664786155.8,286047002.5,Y
1664786175.6,286046997.7,P
1664786195.5,286046999.5,N
1664786215.3,286046998.3,N
1664786235.1,286046999.7,N
1664786255.9,286047002.6,N
1664786275.7,286046998.6,N
1664786295.5,286046998.0,N
1664786315.4,286046997.6,N
1664786335.2,286046998.3,N
1664786355.1,286046999.1,N
1664786356.0,286046999.1,N
1664786375.8,286046998.3,N
1664786395.6,286046996.5,N
1664786415.5,286046998.6,N
1664786435.3,286047000.9,N
1664786455.1,286046996.7,N
1664786475.9,286046996.7,N
1664786495.7,286046999.4,N
1664786515.6,286046998.3,N
1664786535.4,286046998.9,N
1664786555.2,286046998.3,N
1664786575.1,286046998.3,N
1664786576.0,286046998.3,N
1664786595.8,286047001.2,N
1664786615.6,286047000.9,N
1664786635.5,286047000.8,N
1664786655.3,286047002.3,N
1664786675.2,286046999.4,N
1664786695.9,286046998.6,N
1664786715.7,286046998.7,N
1664786735.6,286046999.9,N
1664786755.4,286047000.6,N
1664786775.2,286047001.2,N
1664786795.1,286047001.2,N
1664786796.0,286047001.2,N
1664786815.8,286047000.3,N
1664786835.7,286047002.1,N
1664786855.5,286047002.7,N
1664786875.3,286047000.6,N
1664786895.2,286046998.2,N
1664786915.0,286046997.1,N
1664786915.9,286046997.1,N
1664786935.8,286046997.3,N
1664786955.6,286046998.5,N
1664786975.4,286046997.8,N
1664786995.3,286046995.4,N
1664787015.1,286046994.9,N
1664787035.8,286046999.3,N
1664787055.7,286046998.5,N
1664787075.5,286046998.5,N
1664787095.4,286047000.9,N
1664787115.2,286047000.7,N
1664787135.0,286047001.1,N
1664787135.9,286047001.1,N
1664787155.8,286046998.9,N
1664787175.6,286047001.2,N
1664787195.4,286047001.9,N
1664787215.3,286047003.2,N
1664787235.1,286047005.8,N
1664787255.9,286047004.4,N
1664787275.7,286047001.7,N
1664787295.5,286047003.7,N
1664787315.4,286047000.3,N
1664787335.2,286046998.4,N
1664787355.0,286046998.7,N
1664787355.9,286046998.7,N
1664787375.8,286046998.4,N
1664787395.6,286046998.4,N
1664787415.5,286046998.2,N
1664787435.3,286047000.3,N
1664787455.1,286046998.3,N
1664787475.9,286046999.0,N
1664787495.7,286046997.0,N
1664787515.5,286046999.3,N
1664787535.4,286046998.7,N
1664787555.2,286046998.2,N
1664787575.1,286047000.3,N
1664787576.0,286047000.3,N
1664787595.8,286046998.1,N
